When you browse on this site, cookies collect data to enhance your experience and personalize the content and advertising you see.
Visit our Privacy Policy to learn more. By continuing to use the site, you agree to this use of cookies and data.
  • In Schweiz
  • Länderverzeichnis
  • Für 7 Tage
  • Wassertemperatur
  • Wetterkarte
  • Widgets
  • user-avatar
    Anmelden

    Stündliche Wetter Dymytrov

    Heute, 23 Februar, Sonntag

    Zeit Temperatur Niederschläge Wind Luftdruck Luftfeuchtigkeit
    00:00 +1°C° 0 mm 1 m/S 748 mmHg 98%
    01:00 +1°C° 0 mm 1 m/S 748 mmHg 98%
    02:00 +1°C° 0 mm 1 m/S 748 mmHg 98%
    03:00 -1°C° 0 mm 2 m/S 748 mmHg 97%
    04:00 -1°C° 0 mm 2 m/S 747 mmHg 97%
    05:00 -1°C° 0 mm 3 m/S 747 mmHg 96%
    06:00 -1°C° 0 mm 3 m/S 747 mmHg 95%
    07:00 -2°C° 0 mm 4 m/S 747 mmHg 93%
    08:00 -2°C° 0 mm 4 m/S 747 mmHg 91%
    09:00 -1°C° 0 mm 5 m/S 746 mmHg 87%
    10:00 -2°C° 0 mm 6 m/S 746 mmHg 83%
    11:00 -1°C° 0 mm 6 m/S 745 mmHg 79%
    12:00 -1°C° 0 mm 7 m/S 745 mmHg 80%
    13:00 0°C° 0 mm 7 m/S 744 mmHg 80%
    14:00 0°C° 0 mm 8 m/S 744 mmHg 80%
    15:00 -1°C° 0.3 mm 8 m/S 743 mmHg 85%
    16:00 -1°C° 0.3 mm 8 m/S 742 mmHg 90%
    17:00 -1°C° 0.3 mm 8 m/S 742 mmHg 95%
    18:00 -1°C° 0.1 mm 8 m/S 741 mmHg 92%
    19:00 -1°C° 0.1 mm 8 m/S 741 mmHg 89%
    20:00 0°C° 0.1 mm 7 m/S 741 mmHg 86%
    21:00 0°C° 0 mm 8 m/S 740 mmHg 85%
    22:00 0°C° 0 mm 8 m/S 740 mmHg 85%
    23:00 0°C° 0 mm 8 m/S 739 mmHg 84%

    Morgen, 24 Februar, Montag

    Zeit Temperatur Niederschläge Wind Luftdruck Luftfeuchtigkeit
    00:00 0°C° 0 mm 8 m/S 739 mmHg 85%
    01:00 0°C° 0 mm 7 m/S 739 mmHg 86%
    02:00 +1°C° 0 mm 6 m/S 739 mmHg 87%
    03:00 +1°C° 0 mm 6 m/S 738 mmHg 89%
    04:00 +1°C° 0 mm 6 m/S 737 mmHg 90%
    05:00 +1°C° 0 mm 6 m/S 736 mmHg 92%
    06:00 0°C° 0.2 mm 7 m/S 735 mmHg 91%
    07:00 0°C° 0.2 mm 8 m/S 734 mmHg 91%
    08:00 0°C° 0.2 mm 9 m/S 733 mmHg 90%
    09:00 0°C° 0.4 mm 10 m/S 732 mmHg 92%
    10:00 0°C° 0.4 mm 10 m/S 730 mmHg 93%
    11:00 -1°C° 0.4 mm 11 m/S 729 mmHg 94%
    12:00 +1°C° 1 mm 10 m/S 728 mmHg 94%
    13:00 +1°C° 1 mm 9 m/S 726 mmHg 93%
    14:00 +1°C° 1 mm 8 m/S 725 mmHg 93%
    15:00 +2°C° 0.4 mm 7 m/S 725 mmHg 93%
    16:00 +2°C° 0.4 mm 6 m/S 724 mmHg 93%
    17:00 +2°C° 0.4 mm 5 m/S 724 mmHg 92%
    18:00 +2°C° 0.3 mm 6 m/S 724 mmHg 93%
    19:00 0°C° 0.3 mm 7 m/S 725 mmHg 94%
    20:00 0°C° 0.3 mm 7 m/S 725 mmHg 94%
    21:00 -1°C° 0.5 mm 9 m/S 726 mmHg 94%
    22:00 -3°C° 0.5 mm 11 m/S 727 mmHg 94%
    23:00 -5°C° 0.5 mm 13 m/S 728 mmHg 94%

    übermorgen, 25 Februar, Dienstag

    Zeit Temperatur Niederschläge Wind Luftdruck Luftfeuchtigkeit
    00:00 -3°C° 0.2 mm 12 m/S 730 mmHg 88%
    01:00 -3°C° 0.2 mm 12 m/S 732 mmHg 82%
    02:00 -3°C° 0.2 mm 11 m/S 733 mmHg 76%
    03:00 -3°C° 0 mm 10 m/S 735 mmHg 78%
    04:00 -4°C° 0 mm 10 m/S 736 mmHg 79%
    05:00 -4°C° 0 mm 9 m/S 737 mmHg 80%
    06:00 -4°C° 0 mm 8 m/S 738 mmHg 79%
    07:00 -4°C° 0 mm 8 m/S 739 mmHg 78%
    08:00 -4°C° 0 mm 7 m/S 741 mmHg 76%
    09:00 -3°C° 0 mm 7 m/S 741 mmHg 72%
    10:00 -2°C° 0 mm 6 m/S 742 mmHg 67%
    11:00 -1°C° 0 mm 6 m/S 742 mmHg 62%
    12:00 +1°C° 0 mm 6 m/S 742 mmHg 60%
    13:00 +1°C° 0 mm 5 m/S 743 mmHg 58%
    14:00 +2°C° 0 mm 5 m/S 743 mmHg 57%
    15:00 +1°C° 0 mm 4 m/S 743 mmHg 60%
    16:00 +1°C° 0 mm 4 m/S 742 mmHg 64%
    17:00 +1°C° 0 mm 3 m/S 742 mmHg 67%
    18:00 +1°C° 0 mm 3 m/S 742 mmHg 68%
    19:00 0°C° 0 mm 4 m/S 742 mmHg 68%
    20:00 -1°C° 0 mm 4 m/S 742 mmHg 69%
    21:00 0°C° 0 mm 4 m/S 742 mmHg 70%
    22:00 0°C° 0 mm 5 m/S 742 mmHg 71%
    23:00 -1°C° 0 mm 6 m/S 742 mmHg 72%

    26 Februar, Mittwoch

    Zeit Temperatur Niederschläge Wind Luftdruck Luftfeuchtigkeit
    00:00 -1°C° 0 mm 6 m/S 741 mmHg 75%
    01:00 -1°C° 0 mm 6 m/S 741 mmHg 78%
    02:00 -1°C° 0 mm 6 m/S 741 mmHg 81%
    03:00 -1°C° 0 mm 6 m/S 740 mmHg 81%
    04:00 -1°C° 0 mm 6 m/S 740 mmHg 81%
    05:00 -1°C° 0 mm 6 m/S 740 mmHg 81%
    06:00 -1°C° 0 mm 6 m/S 740 mmHg 80%
    07:00 -1°C° 0 mm 7 m/S 740 mmHg 79%
    08:00 0°C° 0 mm 7 m/S 739 mmHg 78%
    09:00 +2°C° 0 mm 7 m/S 739 mmHg 72%
    10:00 +4°C° 0 mm 7 m/S 739 mmHg 66%
    11:00 +5°C° 0 mm 8 m/S 739 mmHg 60%
    12:00 +5°C° 0 mm 8 m/S 739 mmHg 59%
    13:00 +6°C° 0 mm 8 m/S 738 mmHg 57%
    14:00 +6°C° 0 mm 8 m/S 738 mmHg 56%
    15:00 +6°C° 0 mm 8 m/S 737 mmHg 61%
    16:00 +5°C° 0 mm 7 m/S 737 mmHg 65%
    17:00 +4°C° 0 mm 7 m/S 737 mmHg 69%
    18:00 +3°C° 0 mm 7 m/S 737 mmHg 71%
    19:00 +2°C° 0 mm 8 m/S 737 mmHg 74%
    20:00 +1°C° 0 mm 8 m/S 737 mmHg 77%
    21:00 +1°C° 0 mm 8 m/S 737 mmHg 76%
    22:00 +2°C° 0 mm 7 m/S 736 mmHg 75%
    23:00 +2°C° 0 mm 7 m/S 736 mmHg 74%

    27 Februar, Donnerstag

    Zeit Temperatur Niederschläge Wind Luftdruck Luftfeuchtigkeit
    00:00 +2°C° 0 mm 7 m/S 736 mmHg 74%
    01:00 +2°C° 0 mm 7 m/S 736 mmHg 73%
    02:00 +2°C° 0 mm 6 m/S 735 mmHg 73%
    03:00 +2°C° 0 mm 6 m/S 735 mmHg 74%
    04:00 +2°C° 0 mm 6 m/S 735 mmHg 74%
    05:00 +2°C° 0 mm 6 m/S 735 mmHg 75%
    06:00 +3°C° 0 mm 6 m/S 735 mmHg 75%
    07:00 +3°C° 0 mm 6 m/S 735 mmHg 75%
    08:00 +4°C° 0 mm 6 m/S 735 mmHg 74%
    09:00 +5°C° 0 mm 6 m/S 735 mmHg 70%
    10:00 +8°C° 0 mm 7 m/S 735 mmHg 66%
    11:00 +10°C° 0 mm 7 m/S 735 mmHg 62%
    12:00 +10°C° 0 mm 7 m/S 735 mmHg 61%
    13:00 +11°C° 0 mm 7 m/S 735 mmHg 60%
    14:00 +11°C° 0 mm 7 m/S 735 mmHg 60%
    15:00 +10°C° 0 mm 6 m/S 735 mmHg 65%
    16:00 +9°C° 0 mm 5 m/S 735 mmHg 70%
    17:00 +10°C° 0 mm 4 m/S 735 mmHg 75%
    18:00 +8°C° 0 mm 4 m/S 736 mmHg 79%
    19:00 +7°C° 0 mm 4 m/S 736 mmHg 83%
    20:00 +6°C° 0 mm 4 m/S 736 mmHg 87%
    21:00 +6°C° 0 mm 4 m/S 736 mmHg 89%
    22:00 +6°C° 0 mm 4 m/S 737 mmHg 91%
    23:00 +5°C° 0 mm 3 m/S 737 mmHg 92%

    28 Februar, Freitag

    Zeit Temperatur Niederschläge Wind Luftdruck Luftfeuchtigkeit
    00:00 +5°C° 0 mm 3 m/S 737 mmHg 93%
    01:00 +5°C° 0 mm 3 m/S 737 mmHg 93%
    02:00 +5°C° 0 mm 3 m/S 736 mmHg 93%
    03:00 +5°C° 0 mm 3 m/S 736 mmHg 93%
    04:00 +5°C° 0 mm 3 m/S 737 mmHg 93%
    05:00 +6°C° 0 mm 2 m/S 737 mmHg 93%
    06:00 +6°C° 0 mm 2 m/S 737 mmHg 92%
    07:00 +6°C° 0 mm 2 m/S 737 mmHg 91%
    08:00 +6°C° 0 mm 2 m/S 737 mmHg 90%
    09:00 +8°C° 0 mm 2 m/S 737 mmHg 84%
    10:00 +9°C° 0 mm 3 m/S 737 mmHg 77%
    11:00 +10°C° 0 mm 3 m/S 737 mmHg 71%
    12:00 +10°C° 0 mm 3 m/S 737 mmHg 67%
    13:00 +11°C° 0 mm 3 m/S 737 mmHg 64%
    14:00 +11°C° 0 mm 3 m/S 737 mmHg 60%
    15:00 +10°C° 0 mm 2 m/S 737 mmHg 63%
    16:00 +10°C° 0 mm 2 m/S 737 mmHg 67%
    17:00 +9°C° 0 mm 2 m/S 737 mmHg 70%
    18:00 +9°C° 0 mm 2 m/S 737 mmHg 72%
    19:00 +9°C° 0 mm 1 m/S 738 mmHg 74%
    20:00 +9°C° 0 mm 1 m/S 738 mmHg 77%
    21:00 +8°C° 0 mm 1 m/S 738 mmHg 78%
    22:00 +7°C° 0 mm 0 m/S 738 mmHg 79%
    23:00 +7°C° 0 mm 0 m/S 738 mmHg 81%
    Mehr zeigen